Terug naar catalogus

GALAXY 9

ActiefCommunicatieGEO
NORAD 23877·PAYLOAD·🇺🇸 United States

Gelanceerd May 24, 1996 vanaf Cape Canaveral Space Force Station

Loading…

TLE

VersSource: Space-Track

Epoch: Sep 14, 2026, 09:06 UTC

1 23877U 96033A   26257.37950515 -.00000114  00000-0  00000-0 0  9992
2 23877  12.2222  31.7143 0010512 175.6175  14.8116  0.99535952 47245

Volg GALAXY 9 in realtime met AllMySat

Download on the App Store